Weather observations for the past three days for
Troy, Oakland/Troy Airport
Metric (Imperial)
Date Time (edt) Wind (kph) Vis. (km) Weather Sky Cond. Temperature (ºC) Relative Humidity Wind Chill (°C) Heat Index (°C) Pressure Precipitation (cm)
Air Dwpt 6 hour altimeter (cm) sea level (mb) 1 hr 3 hr 6 hr
Max. Min.
07 16:55 NW 22 G 35 16.09 Mostly Cloudy BKN070 BKN080 13 -4 31% 75.84 0.0
07 16:35 W 17 G 33 16.09 Overcast BKN080 OVC090 12 -4 33% 75.84 0.0
07 16:15 W 22 G 37 16.09 Mostly Cloudy BKN080 12 -4 33% 75.84 0.0
07 15:55 NW 24 G 44 16.09 Partly Cloudy SCT070 SCT080 12 -5 30% 75.87 0.0
07 15:35 W 28 G 39 16.09 Mostly Cloudy BKN070 BKN080 13 -4 31% 75.84 0.0
07 15:15 W 20 G 33 16.09 Mostly Cloudy SCT070 BKN080 12 -4 33% 75.87 0.0
07 14:55 NW 22 G 33 16.09 Mostly Cloudy BKN070 BKN080 12 -4 33% 75.87 0.0
07 14:35 W 28 G 37 16.09 Mostly Cloudy BKN075 12 -4 33% 75.87 0.0
07 14:15 W 15 G 33 16.09 Mostly Cloudy FEW065 BKN075 13 -3 33% 75.87 0.0
07 13:55 NW 22 G 31 16.09 Overcast OVC065 12 -3 13.2 6.5 35% 75.9 0.0
07 13:35 NW 20 G 28 16.09 Overcast BKN070 OVC075 12 -3 35% 75.9 0.0
07 13:15 W 24 G 31 16.09 Mostly Cloudy SCT060 BKN070 BKN080 12 -3 35% 75.9 0.0
07 12:55 W 26 G 35 16.09 Overcast BKN060 OVC070 12 -3 35% 75.92 0.0
07 12:35 W 28 G 35 16.09 Overcast OVC070 13 -3 33% 75.92 0.0
07 12:15 W 22 G 28 16.09 Overcast BKN065 OVC070 13 -2 36% 75.9 0.0
07 11:55 W 19 G 26 16.09 Mostly Cloudy BKN065 BKN075 13 -3 33% 75.92 0.0
07 11:35 SW 17 G 33 16.09 Mostly Cloudy BKN055 12 -3 35% 75.9 0.0
07 11:15 W 22 G 30 16.09 Overcast BKN055 OVC065 12 -3 35% 75.92 0.0
07 10:55 W 15 16.09 Mostly Cloudy BKN055 BKN070 12 -2 38% 75.92 0.0
07 10:35 Vrbl 9 16.09 Partly Cloudy SCT055 11 -2 41% 75.92 0.0
07 10:15 NW 15 16.09 Fair CLR 11 -2 41% 75.92 0.0
07 09:55 Vrbl 7 16.09 Fair CLR 11 -1 44% 75.95 0.0
07 09:35 Vrbl 6 16.09 Fair CLR 10 -1 47% 75.95 0.0
07 09:15 W 9 16.09 Fair CLR 10 -1 47% 9 75.97 0.0
07 08:55 Vrbl 2 16.09 Fair CLR 9 -2 46% 75.97 0.0
07 08:35 Vrbl 2 16.09 Fair CLR 8 -1 53% 75.97 0.0
07 08:15 W 4 16.09 Fair CLR 7 0 61% 75.97 0.0
07 07:55 Calm 16.09 Fair CLR 7 1 8.9 4.2 66% 75.95 0.0
07 07:35 Calm 16.09 Fair CLR 6 1 71% 75.95 0.0
07 07:15 Calm 16.09 Fair CLR 5 0 70% 75.95 0.0
07 06:55 Calm 16.09 Fair CLR 4 0 75% 75.92 0.0
07 06:35 N 2 16.09 Fair CLR 4 0 75% 75.92 0.0
07 06:15 NE 2 16.09 A Few Clouds FEW085 4 0 75% 75.92 0.0
07 05:55 NE 2 16.09 Mostly Cloudy BKN085 5 0 70% 75.9 0.0
07 05:35 Calm 16.09 Mostly Cloudy BKN085 5 0 70% 75.92 0.0
07 05:15 NE 4 16.09 Partly Cloudy SCT095 5 0 70% 75.92 0.0
07 04:55 NE 2 16.09 Overcast OVC095 6 0 66% 75.92 0.0
07 04:35 W 4 16.09 Overcast OVC095 7 -1 57% 75.92 0.0
07 04:15 W 4 16.09 Mostly Cloudy FEW070 BKN095 6 -1 61% 75.92 0.0
07 03:55 W 6 16.09 Mostly Cloudy BKN070 7 -1 57% 75.92 0.0
07 03:35 NW 4 16.09 Overcast OVC070 7 -1 57% 75.92 0.0
07 03:15 W 4 16.09 Mostly Cloudy BKN080 7 -1 57% 75.92 0.0
07 02:55 W 6 16.09 Fair CLR 8 -1 53% 75.92 0.0
07 02:35 W 4 16.09 Fair CLR 8 -1 53% 75.92 0.0
07 02:15 W 6 16.09 Partly Cloudy FEW085 SCT100 9 -1 50% 75.92 0.0
07 01:55 W 6 16.09 Overcast SCT085 OVC100 9 -1 11.4 8.9 50% 75.92 0.0
07 01:35 W 7 16.09 Overcast SCT085 OVC110 9 -1 50% 8 75.95 0.0
07 01:15 W 6 16.09 Overcast BKN085 OVC100 9 -1 50% 75.95 0.0
07 00:55 SW 6 16.09 Overcast SCT085 OVC100 9 -2 46% 75.95 0.0
07 00:35 SW 6 16.09 Overcast OVC100 10 -2 43% 75.95 0.0
07 00:15 SW 7 16.09 Overcast OVC100 10 -2 43% 9 75.97 0.0
06 23:55 SW 6 16.09 Overcast OVC100 10 -2 43% 75.97 0.0
06 23:35 SW 6 16.09 Overcast OVC100 10 -2 43% 75.97 0.0
06 23:15 SW 7 16.09 Mostly Cloudy BKN090 10 -1 47% 9 75.97 0.0
06 22:55 W 7 16.09 Overcast OVC090 10 -1 47% 9 76 0.0
06 22:35 SW 6 16.09 Mostly Cloudy BKN090 11 -1 44% 75.97 0.0
06 22:15 SW 7 16.09 Overcast FEW070 OVC090 11 -1 44% 75.97 0.0
06 21:55 SW 7 16.09 Overcast BKN070 OVC090 11 -2 41% 75.97 0.0
06 21:35 SW 6 16.09 Overcast BKN070 OVC090 11 -2 41% 75.95 0.0
06 21:15 SW 6 16.09 Overcast SCT070 OVC080 11 -2 41% 75.95 0.0
06 20:55 SW 6 16.09 Overcast OVC080 11 -3 38% 75.95 0.0
06 20:35 W 6 16.09 Overcast OVC080 11 -3 38% 75.95 0.0
06 20:15 W 7 16.09 Overcast OVC080 11 -3 38% 75.95 0.0
06 19:55 W 11 16.09 Overcast OVC080 11 -3 12.2 10.6 38% 75.95 0.0
06 19:35 NW 6 16.09 Overcast OVC080 11 -3 38% 75.92 0.0
06 19:15 NW 9 16.09 Overcast OVC080 11 -3 38% 75.92 0.0
06 18:55 NW 7 16.09 Mostly Cloudy BKN080 11 -3 38% 75.92 0.0
06 18:35 Vrbl 4 16.09 A Few Clouds FEW080 12 -3 35% 75.92 0.0
06 18:15 W 13 16.09 A Few Clouds FEW080 12 -3 35% 75.95 0.0
06 17:55 NW 17 16.09 Partly Cloudy SCT070 12 -2 38% 75.95 0.0
06 17:35 Vrbl 6 16.09 Mostly Cloudy BKN070 12 -3 35% 75.92 0.0
06 17:15 W 11 16.09 Overcast OVC060 12 -2 38% 75.92 0.0
06 16:55 NW 19 16.09 Overcast OVC060 12 -3 35% 75.92 0.0
06 16:35 NW 15 16.09 Mostly Cloudy BKN060 12 -2 38% 75.92 0.0
06 16:15 NW 20 16.09 Overcast OVC060 11 -2 41% 75.95 0.0
06 15:55 NW 15 16.09 Overcast OVC060 11 -2 41% 75.92 0.0
06 15:35 W 19 16.09 Mostly Cloudy BKN060 11 -3 38% 75.95 0.0
06 15:15 W 19 16.09 Mostly Cloudy BKN060 11 -2 41% 75.95 0.0
06 14:55 W 17 16.09 Partly Cloudy SCT060 11 -2 41% 75.92 0.0
06 14:35 NW 13 16.09 Mostly Cloudy BKN050 11 -2 41% 75.92 0.0
06 14:15 W 19 G 28 16.09 Mostly Cloudy BKN050 11 -1 44% 75.95 0.0
06 13:55 Vrbl 7 16.09 Mostly Cloudy BKN060 11 -2 11.4 7.1 41% 75.95 0.0
06 13:35 W 17 G 28 16.09 Overcast OVC060 11 -2 41% 75.95 0.0
06 13:15 NW 17 16.09 Overcast OVC060 11 -2 41% 75.95 0.0
06 12:55 W 13 16.09 Overcast OVC060 11 -2 41% 75.92 0.0
06 12:35 W 13 16.09 Partly Cloudy SCT060 11 -2 41% 75.95 0.0
06 12:15 NW 15 G 30 16.09 Fair CLR 11 -3 38% 75.92 0.0
06 11:55 W 11 16.09 Fair CLR 11 -3 38% 75.92 0.0
06 11:35 NW 19 16.09 A Few Clouds FEW043 10 -1 47% 8 75.92 0.0
06 11:15 NW 13 16.09 Fair CLR 11 -1 44% 75.92 0.0
06 10:55 N 9 16.09 A Few Clouds FEW036 10 1 54% 9 75.9 0.0
06 10:35 NE 9 16.09 Fair CLR 10 1 54% 9 75.9 0.0
06 10:15 Vrbl 6 16.09 Fair CLR 9 0 54% 75.9 0.0
06 09:55 Vrbl 11 16.09 Fair CLR 9 0 54% 8 75.9 0.0
06 09:35 NE 13 16.09 Fair CLR 8 0 57% 6 75.87 0.0
06 09:15 Vrbl 11 16.09 Fair CLR 8 0 57% 6 75.84 0.0
06 08:55 NE 15 16.09 Fair CLR 8 0 57% 6 75.82 0.0
06 08:35 N 9 16.09 Fair CLR 8 -1 53% 7 75.79 0.0
06 08:15 N 11 16.09 Fair CLR 7 0 61% 5 75.79 0.0
06 07:55 Vrbl 6 16.09 Fair CLR 7 0 10.1 6.8 61% 75.77 0.0
06 07:35 N 9 16.09 Fair CLR 7 0 61% 5 75.77 0.0
06 07:15 Vrbl 6 16.09 A Few Clouds FEW100 7 0 61% 75.74 0.0
06 06:55 N 7 16.09 Mostly Cloudy BKN100 7 1 66% 6 75.72 0.0
06 06:35 N 11 16.09 Overcast OVC100 8 1 62% 6 75.69 0.0
06 06:15 Vrbl 7 16.09 Overcast OVC090 8 2 66% 7 75.67 0.0
06 05:55 Vrbl 7 16.09 Overcast BKN090 OVC120 8 1 62% 7 75.67 0.0
06 05:35 N 7 16.09 Mostly Cloudy BKN090 BKN120 9 1 58% 8 75.64 0.0
06 05:15 N 13 16.09 A Few Clouds FEW120 9 0 54% 7 75.64 0.0
06 04:55 N 7 16.09 Fair CLR 9 0 54% 8 75.62 0.0
06 04:35 N 9 16.09 A Few Clouds FEW110 9 0 54% 8 75.62 0.0
06 04:15 N 9 16.09 Mostly Cloudy BKN110 9 0 54% 8 75.62 0.0
06 03:55 NW 11 16.09 Overcast OVC100 10 -1 47% 9 75.64 0.0
06 03:35 NW 9 16.09 Overcast OVC110 10 -1 47% 9 75.62 0.0
06 03:15 N 7 16.09 Overcast OVC090 10 -1 47% 9 75.62 0.0
06 02:55 NW 7 16.09 Overcast OVC100 10 -1 47% 9 75.62 0.0
06 02:35 W 7 16.09 Overcast OVC100 10 0 50% 9 75.62 0.0
06 02:15 W 6 16.09 Overcast BKN090 OVC110 10 0 50% 75.64 0.0
06 01:55 SW 7 16.09 Overcast BKN090 OVC110 10 0 12.5 10 50% 9 75.64 0.0
06 01:35 SW 6 16.09 Overcast OVC080 10 0 50% 75.62 0.0
06 01:15 W 6 16.09 Overcast OVC080 10 -1 47% 75.64 0.0
06 00:55 W 7 16.09 Overcast OVC080 10 -1 47% 9 75.64 0.0
06 00:35 W 7 16.09 Overcast OVC080 11 -1 44% 75.64 0.0
06 00:15 Vrbl 6 16.09 Overcast OVC080 11 -1 44% 75.62 0.0
05 23:55 W 6 16.09 Overcast OVC080 11 -1 44% 75.62 0.0
05 23:35 SW 6 16.09 Overcast OVC080 11 -1 44% 75.64 0.0
05 23:15 W 6 16.09 Overcast OVC080 11 -2 41% 75.64 0.0
05 22:55 W 9 16.09 Overcast OVC080 11 -2 41% 75.64 0.0
05 22:35 W 11 16.09 Overcast OVC080 11 -2 41% 75.64 0.0
05 22:15 W 9 16.09 Overcast OVC080 12 -2 38% 75.64 0.0
05 21:55 W 11 16.09 Overcast OVC080 12 -3 35% 75.62 0.0
05 21:35 W 11 16.09 Overcast OVC090 12 -3 35% 75.59 0.0
05 21:15 W 13 16.09 Overcast BKN090 OVC110 12 -2 38% 75.59 0.0
05 20:55 W 9 16.09 Overcast OVC110 12 -1 41% 75.59 0.0
05 20:35 W 7 16.09 Overcast OVC110 12 0 44% 75.59 0.0
05 20:15 W 9 16.09 Mostly Cloudy BKN110 12 0 44% 75.57 0.0
05 19:55 W 9 16.09 Partly Cloudy SCT120 12 0 13.1 10.5 44% 75.54 0.0
05 19:35 W 9 16.09 Fair CLR 13 1 44% 75.54 0.0
05 19:15 Vrbl 9 16.09 Partly Cloudy SCT075 13 1 44% 75.51 0.0
05 18:55 W 9 16.09 Partly Cloudy FEW075 SCT090 13 2 47% 75.54 0.0
05 18:35 W 13 16.09 Partly Cloudy SCT090 13 5 59% 75.54 0.0
05 18:15 W 15 16.09 Mostly Cloudy SCT080 BKN090 13 5 59% 75.54 0.0
05 17:55 W 13 16.09 Mostly Cloudy BKN085 BKN100 13 5 59% 75.54 0.0
05 17:35 Vrbl 11 16.09 Partly Cloudy SCT085 SCT100 13 6 63% 75.54 0.0
05 17:15 W 13 16.09 Mostly Cloudy SCT070 BKN085 13 6 63% 75.54 0.0
05 16:55 W 11 16.09 Overcast OVC070 12 6 67% 75.54 0.0
05 16:35 SW 17 16.09 Overcast OVC070 12 6 67% 75.57 0.0
05 16:15 SW 17 16.09 Overcast OVC070 12 6 67% 75.57 0.0
05 15:55 SW 11 16.09 Overcast FEW060 OVC070 12 6 67% 75.57 0.0
05 15:35 SW 17 16.09 Overcast FEW060 OVC070 12 6 67% 75.57 0.0
05 15:15 SW 11 16.09 Overcast FEW060 OVC070 11 6 72% 75.59 0.0
05 14:55 SW 19 16.09 Overcast OVC070 11 7 77% 75.59 0.0
05 14:35 SW 19 16.09 Overcast SCT050 OVC080 11 7 77% 75.57 0.0
05 14:15 SW 19 G 28 16.09 Overcast OVC050 11 7 77% 75.54 0.0
05 13:55 SW 11 16.09 Light Rain OVC050 11 8 16.3 10.3 82% 75.54 0.0 0.03
05 13:35 SW 11 16.09 Light Rain BKN050 OVC070 11 8 82% 75.51 0.0
05 13:15 SW 19 16.09 Light Rain BKN048 OVC080 11 8 82% 75.54 0.0
05 12:55 SW 9 16.09 Light Rain BKN048 BKN070 OVC090 11 8 82% 75.54 0.0 0.1
05 12:35 W 19 12.87 Light Rain FEW034 SCT055 OVC070 12 7 72% 75.54 0.0
05 12:15 NW 17 16.09 Light Rain FEW060 BKN070 OVC080 13 7 67% 75.54 0.0
05 11:55 W 19 G 28 16.09 Light Rain FEW060 OVC085 14 5 55% 75.49 0.0
05 11:35 W 15 16.09 Overcast OVC085 15 3 45% 75.46 0.0
05 11:15 W 15 16.09 Overcast OVC085 15 4 48% 75.44 0.0
05 10:55 W 15 16.09 Overcast OVC085 15 6 55% 75.44 0.0
05 10:35 W 15 16.09 Overcast OVC085 16 6 52% 75.41 0.0
05 10:15 W 20 G 26 16.09 Mostly Cloudy BKN085 16 5 48% 75.41 0.0
05 09:55 W 15 16.09 Partly Cloudy FEW085 SCT110 16 5 48% 75.36 0.0
05 09:35 W 13 16.09 Partly Cloudy SCT085 16 5 48% 75.29 0.0
05 09:15 W 15 16.09 Fair CLR 16 7 55% 75.31 0.0
05 08:55 W 15 16.09 Fair CLR 15 9 68% 75.26 0.0
05 08:35 W 17 G 30 16.09 Fair CLR 15 10 72% 75.26 0.0
05 08:15 W 13 G 26 16.09 Fair CLR 15 10 72% 75.26 0.0
05 07:55 W 15 16.09 Fair CLR 14 10 15.4 14 77% 75.26 0.0
05 07:35 W 17 16.09 Fair CLR 14 10 77% 75.23 0.0
05 07:15 W 13 16.09 Fair CLR 14 11 82% 75.18 0.0
05 06:55 W 13 16.09 Fair CLR 14 11 82% 75.16 0.0
05 06:35 W 15 16.09 Fair CLR 14 11 82% 75.11 0.0
05 06:15 SW 17 G 30 16.09 Partly Cloudy SCT075 14 11 82% 75.08 0.0
05 05:55 SW 13 G 30 16.09 Fair CLR 15 11 77% 75.11 0.0
05 05:15 SW 24 16.09 Fair CLR 15 11 77% 75.08 0.0
05 04:55 SW 19 G 26 16.09 Fair CLR 15 12 82% 75.08 0.0
05 04:35 SW 20 G 28 16.09 A Few Clouds FEW070 15 12 82% 75.06 0.0
05 04:15 SW 20 G 31 16.09 Partly Cloudy SCT070 15 12 82% 75.03 0.0
05 03:55 SW 19 16.09 Fair CLR 15 12 82% 75.03 0.0
05 03:35 SW 15 16.09 A Few Clouds FEW120 15 12 82% 74.98 0.0
05 03:15 SW 13 16.09 Mostly Cloudy BKN120 15 12 82% 74.96 0.0
05 02:55 SW 17 G 31 16.09 Partly Cloudy FEW085 SCT110 15 11 77% 74.98 0.0
05 02:35 SW 19 G 28 16.09 Light Rain BKN080 OVC110 15 12 82% 75.01 0.0
05 02:15 SW 17 G 28 16.09 Mostly Cloudy FEW075 BKN090 BKN120 15 12 82% 75.03 0.0
05 01:55 SW 17 16.09 A Few Clouds FEW095 FEW120 15 12 20 14.8 82% 74.98 0.0 0.05
05 01:35 SW 15 16.09 Light Rain BKN085 15 12 82% 75.01 0.0
05 01:15 W 13 G 41 16.09 Light Rain OVC085 16 12 77% 75.03 0.0
05 00:55 SW 35 G 65 16.09 Light Rain and Breezy SCT085 OVC110 18 11 64% 75.08 0.0
05 00:35 SW 35 G 48 16.09 Mostly Cloudy and Breezy BKN120 20 11 56% 75.03 0.0
05 00:15 SW 24 G 35 16.09 Partly Cloudy SCT120 19 11 60% 75.01 0.0
04 23:55 SW 24 G 39 16.09 A Few Clouds FEW120 19 11 60% 74.98 0.0
04 23:35 SW 26 16.09 Fair CLR 18 11 64% 74.98 0.0
04 23:15 S 17 16.09 Fair CLR 18 12 68% 75.01 0.0
04 22:55 SW 15 16.09 Fair CLR 17 12 73% 75.03 0.0
04 22:35 SW 15 16.09 Fair CLR 17 13 77% 75.03 0.0
04 22:15 SW 17 16.09 Partly Cloudy SCT065 SCT085 SCT120 17 13 77% 75.03 0.0
04 21:55 SW 7 16.09 Overcast BKN065 BKN095 OVC120 17 13 77% 75.03 0.0 0.15
04 21:15 SW 13 16.09 Overcast OVC070 18 11 64% 75.01 0.0
04 20:55 SW 15 G 30 16.09 Mostly Cloudy BKN070 BKN090 BKN110 19 11 60% 75.01 0.0
04 20:35 SW 20 16.09 Partly Cloudy FEW055 FEW075 SCT100 18 11 64% 74.98 0.0
04 20:15 SW 26 G 44 16.09 Mostly Cloudy FEW055 SCT075 BKN100 19 11 60% 74.96 0.0
04 19:55 SW 26 G 56 16.09 Mostly Cloudy FEW060 SCT090 BKN110 19 10 24.9 20 56% 74.96 0.0
04 19:35 SW 17 G 31 16.09 Mostly Cloudy FEW065 SCT080 BKN110 24 9 39% 25 74.93 0.0
04 19:15 SW 17 G 33 16.09 Partly Cloudy SCT070 SCT100 24 9 39% 25 74.93 0.0
04 18:55 SW 22 G 31 16.09 Partly Cloudy SCT070 24 8 36% 25 74.9 0.0
04 18:35 W 22 G 31 16.09 A Few Clouds FEW075 FEW090 24 8 36% 25 74.93 0.0
04 18:15 SW 31 G 54 16.09 A Few Clouds FEW090 24 7 34% 25 74.96 0.0
04 17:55 SW 26 G 43 16.09 A Few Clouds FEW070 FEW085 25 7 32% 25 74.96 0.0
Date Time (edt) Wind (kph) Vis. (km) Weather Sky Cond. Air Dwpt Max. Min. Relative Humidity Wind Chill (°C) Heat Index (°C) altimeter (cm) sea level (mb) 1 hr 3 hr 6 hr
6 hour
Temperature (ºC) Pressure Precipitation (cm)